Location: Kershaw
(34.5481°N, 80.5823°W)
Time: 16:23:07
(UTC+00:00)

deb Explorer IX - All Passes

Search period start: 26 September 2022 00:00
Search period end: 06 October 2022 00:00
Orbit: 531 x 1066 km, 38.8° (Epoch: 25 September)

Date Brightness Start Highest point End Pass type
(mag) Time Alt. Az. Time Alt. Az. Time Alt. Az.
26 Sep - 11:58:49 10° S 12:02:13 17° SE 12:05:53 10° E daylight
26 Sep - 13:42:15 10° SW 13:47:57 63° SSE 13:54:31 10° ENE daylight
26 Sep - 15:28:32 10° W 15:34:48 67° N 15:41:48 10° ENE daylight
26 Sep - 17:15:29 10° WNW 17:22:12 65° N 17:29:18 10° E daylight
26 Sep - 19:02:20 10° WNW 19:09:22 76° SSW 19:16:24 10° ESE daylight
26 Sep - 20:49:58 10° W 20:55:43 27° SW 21:01:17 10° SSE daylight
27 Sep - 11:29:02 10° SSE 11:31:49 14° SE 11:34:48 10° ESE daylight
27 Sep - 13:11:59 10° SW 13:17:26 58° SSE 13:23:47 10° ENE daylight
27 Sep - 14:58:07 10° W 15:04:11 68° N 15:11:05 10° ENE daylight
27 Sep - 16:44:58 10° WNW 16:51:33 63° N 16:58:37 10° E daylight
27 Sep - 18:31:45 10° WNW 18:38:44 79° SSW 18:45:50 10° ESE daylight
27 Sep - 20:19:13 10° W 20:25:10 29° SW 20:30:58 10° SSE daylight
28 Sep - 10:59:28 10° SSE 11:01:26 12° SE 11:03:31 10° ESE daylight
28 Sep - 12:41:43 10° SW 12:46:57 53° SSE 12:53:03 10° ENE daylight
28 Sep - 14:27:42 10° W 14:33:36 70° NNW 14:40:20 10° ENE daylight
28 Sep - 16:14:30 10° WNW 16:20:53 62° N 16:27:53 10° E daylight
28 Sep - 18:01:12 10° WNW 18:08:04 82° SSW 18:15:13 10° ESE daylight
28 Sep - 19:48:29 10° W 19:54:34 31° SW 20:00:37 10° SSE daylight
29 Sep - 12:11:29 10° SW 12:16:28 49° SSE 12:22:17 10° ENE daylight
29 Sep - 13:57:19 10° W 14:03:00 71° NNW 14:09:36 10° ENE daylight
29 Sep - 15:44:03 10° WNW 15:50:14 61° N 15:57:08 10° E daylight
29 Sep - 17:30:40 10° WNW 17:37:24 86° SSW 17:44:34 10° ESE daylight
29 Sep - 19:17:49 10° W 19:23:58 34° SW 19:30:11 10° SSE daylight
30 Sep - 11:41:17 10° SW 11:46:00 44° SSE 11:51:32 10° ENE daylight
30 Sep - 13:26:56 10° W 13:32:25 73° NNW 13:38:51 10° ENE daylight
30 Sep - 15:13:36 10° WNW 15:19:36 60° N 15:26:22 10° E daylight
30 Sep - 17:00:10 10° WNW 17:06:44 89° SSW 17:13:52 10° ESE daylight
30 Sep - 18:47:09 10° W 18:53:21 36° SW 18:59:43 10° SSE daylight
01 Oct - 11:11:04 10° SW 11:15:34 39° SSE 11:20:47 10° E daylight
01 Oct - 12:56:35 10° W 13:01:52 75° NNW 13:08:06 10° ENE daylight
01 Oct - 14:43:11 10° WNW 14:48:57 59° N 14:55:35 10° E daylight
01 Oct - 16:29:40 10° WNW 16:36:04 88° NNE 16:43:09 10° ESE daylight
01 Oct - 18:16:32 10° W 18:22:43 38° SSW 18:29:10 10° SSE daylight
02 Oct - 10:40:53 10° SSW 10:45:08 35° SE 10:50:01 10° E visible
02 Oct - 12:26:14 10° WSW 12:31:19 77° NNW 12:37:20 10° ENE daylight
02 Oct - 14:12:45 10° WNW 14:18:20 58° N 14:24:46 10° E daylight
02 Oct - 15:59:12 10° WNW 16:05:25 85° NNE 16:12:24 10° ESE daylight
02 Oct - 17:45:56 10° W 17:52:04 40° SSW 17:58:36 10° SE daylight
02 Oct - 19:36:53 10° SW 19:38:04 10° SW 19:39:16 10° SW daylight
03 Oct - 10:10:43 10° SSW 10:14:42 31° SE 10:19:15 10° E visible
03 Oct - 11:55:53 10° WSW 12:00:47 80° NNW 12:06:36 10° ENE daylight
03 Oct - 13:42:21 10° WNW 13:47:42 57° N 13:53:57 10° E daylight
03 Oct - 15:28:45 10° WNW 15:34:46 81° NNE 15:41:37 10° ESE daylight
03 Oct - 17:15:22 10° W 17:21:26 43° SSW 17:27:59 10° SE daylight
03 Oct - 19:05:18 10° WSW 19:07:29 12° SW 19:09:43 10° SSW daylight
04 Oct - 09:40:33 10° SSW 09:44:18 28° SE 09:48:29 10° E visible
04 Oct - 11:25:33 10° WSW 11:30:17 84° NNW 11:35:51 10° ENE daylight
04 Oct - 13:11:57 10° WNW 13:17:07 56° N 13:23:09 10° ENE daylight
04 Oct - 14:58:19 10° WNW 15:04:07 78° NNE 15:10:49 10° ESE daylight
04 Oct - 16:44:49 10° W 16:50:47 45° SSW 16:57:20 10° SE daylight
04 Oct - 18:34:08 10° WSW 18:36:53 13° SW 18:39:42 10° SSW daylight
05 Oct - 09:10:25 10° SSW 09:13:53 24° SE 09:17:44 10° E visible
05 Oct - 10:55:13 10° WSW 10:59:47 87° NNW 11:05:08 10° ENE visible
05 Oct - 12:41:34 10° W 12:46:32 55° N 12:52:20 10° ENE daylight
05 Oct - 14:27:53 10° WNW 14:33:29 75° NNE 14:40:00 10° ESE daylight
05 Oct - 16:14:17 10° WNW 16:20:08 47° SSW 16:26:39 10° SE daylight
05 Oct - 18:03:09 10° WSW 18:06:17 14° SW 18:09:31 10° SSW daylight
